Terminal Aerodrome Forecast
Issued by NWS Wilmington, OH

Current Version | Previous Version | Graphics & Text | Print | Product List | Glossary On
Versions: 1 2 3 4 5 6 7 8 9 10 11 12 13 14 15 16 17 18 19 20 21 22 23 24
000
FTUS41 KILN 251729
TAFILN
TAF
KILN 251729Z 2518/2618 26010KT P6SM VCTS SCT035CB SCT120 BKN250
     FM252000 28007KT P6SM BKN040 BKN120 BKN250
     FM260000 31003KT P6SM SCT120 BKN250
      TEMPO 2608/2612 5SM BR
     FM261300 35004KT P6SM SCT150 BKN250
     FM261600 36005KT P6SM SCT035 BKN150 BKN250=

USA.gov is the U.S. government's official web portal to all federal, state and local government web resources and services.